Volver al catálogo

STARLINK-30184

ActivoComunicacionesVLEO
NORAD 57310·PAYLOAD·🇺🇸 United States

Lanzado Jul 10, 2023 desde Cape Canaveral Space Force Station

Loading…

Próximos Pases (próximas 24 horas)

TLE

ActualizadoSource: CelesTrak SupGP

Época: Sep 14, 2026, 22:06 UTC

1 57310C 23096W   26257.92131944  .00006227  00000+0  22552-3 0  2573
2 57310  42.9998 205.7877 0001341 262.6577  12.0174 15.27579856    10

Sigue STARLINK-30184 en tiempo real con AllMySat

Download on the App Store